Year,Month,Day,Hour,Minute,Value (Times are PST for windgust in km/hr)
2012,01,22,00,00,14.50
2012,01,22,00,01,9.60
2012,01,22,00,02,9.60
2012,01,22,00,03,9.60
2012,01,22,00,04,9.60
2012,01,22,00,05,11.30
2012,01,22,00,06,11.30
2012,01,22,00,07,9.60
2012,01,22,00,08,9.60
2012,01,22,00,09,8.10
2012,01,22,00,10,8.10
2012,01,22,00,11,9.60
2012,01,22,00,12,11.30
2012,01,22,00,13,9.60
2012,01,22,00,14,11.30
2012,01,22,00,15,12.90
2012,01,22,00,16,16.10
2012,01,22,00,17,19.30
2012,01,22,00,18,16.10
2012,01,22,00,19,11.30
2012,01,22,00,20,6.40
2012,01,22,00,21,6.40
2012,01,22,00,22,8.10
2012,01,22,00,23,8.10
2012,01,22,00,24,8.10
2012,01,22,00,25,9.60
2012,01,22,00,26,9.60
2012,01,22,00,27,9.60
2012,01,22,00,28,14.50
2012,01,22,00,29,14.50
2012,01,22,00,30,16.10
2012,01,22,00,31,11.30
2012,01,22,00,32,9.60
2012,01,22,00,33,14.50
2012,01,22,00,34,12.90
2012,01,22,00,35,14.50
2012,01,22,00,36,14.50
2012,01,22,00,37,16.10
2012,01,22,00,38,20.90
2012,01,22,00,39,14.50
2012,01,22,00,40,17.70
2012,01,22,00,41,12.90
2012,01,22,00,42,22.50
2012,01,22,00,43,11.30
2012,01,22,00,44,16.10
2012,01,22,00,45,19.30
2012,01,22,00,46,16.10
2012,01,22,00,47,19.30
2012,01,22,00,48,19.30
2012,01,22,00,49,20.90
2012,01,22,00,50,19.30
2012,01,22,00,51,16.10
2012,01,22,00,52,20.90
2012,01,22,00,53,16.10
2012,01,22,00,54,16.10
2012,01,22,00,55,20.90
2012,01,22,00,56,14.50
2012,01,22,00,57,14.50
2012,01,22,00,58,14.50
2012,01,22,00,59,12.90
2012,01,22,01,00,12.90
2012,01,22,01,01,14.50
2012,01,22,01,02,11.30
2012,01,22,01,03,9.60
2012,01,22,01,04,9.60
2012,01,22,01,05,12.90
2012,01,22,01,06,17.70
2012,01,22,01,07,9.60
2012,01,22,01,08,9.60
2012,01,22,01,09,9.60
2012,01,22,01,10,11.30
2012,01,22,01,11,6.40
2012,01,22,01,12,8.10
2012,01,22,01,13,9.60
2012,01,22,01,14,9.60
2012,01,22,01,15,6.40
2012,01,22,01,16,9.60
2012,01,22,01,17,14.50
2012,01,22,01,18,14.50
2012,01,22,01,19,14.50
2012,01,22,01,20,12.90
2012,01,22,01,21,14.50
2012,01,22,01,22,16.10
2012,01,22,01,23,20.90
2012,01,22,01,24,19.30
2012,01,22,01,25,17.70
2012,01,22,01,26,22.50
2012,01,22,01,27,17.70
2012,01,22,01,28,19.30
2012,01,22,01,29,17.70
2012,01,22,01,30,17.70
2012,01,22,01,31,19.30
2012,01,22,01,32,22.50
2012,01,22,01,33,16.10
2012,01,22,01,34,14.50
2012,01,22,01,35,19.30
2012,01,22,01,36,19.30
2012,01,22,01,37,32.20
2012,01,22,01,38,27.40
2012,01,22,01,39,20.90
2012,01,22,01,40,16.10
2012,01,22,01,41,19.30
2012,01,22,01,42,24.20
2012,01,22,01,43,22.50
2012,01,22,01,44,22.50
2012,01,22,01,45,22.50
2012,01,22,01,46,22.50
2012,01,22,01,47,20.90
2012,01,22,01,48,27.40
2012,01,22,01,49,25.70
2012,01,22,01,50,24.20
2012,01,22,01,51,22.50
2012,01,22,01,52,22.50
2012,01,22,01,53,22.50
2012,01,22,01,54,20.90
2012,01,22,01,55,20.90
2012,01,22,01,56,17.70
2012,01,22,01,57,22.50
2012,01,22,01,58,19.30
2012,01,22,01,59,20.90
2012,01,22,02,00,20.90
2012,01,22,02,01,16.10
2012,01,22,02,02,24.20
2012,01,22,02,03,20.90
2012,01,22,02,04,16.10
2012,01,22,02,05,14.50
2012,01,22,02,06,16.10
2012,01,22,02,07,16.10
2012,01,22,02,08,17.70
2012,01,22,02,09,17.70
2012,01,22,02,10,16.10
2012,01,22,02,11,17.70
2012,01,22,02,12,14.50
2012,01,22,02,13,19.30
2012,01,22,02,14,19.30
2012,01,22,02,15,16.10
2012,01,22,02,16,16.10
2012,01,22,02,17,17.70
2012,01,22,02,18,16.10
2012,01,22,02,19,17.70
2012,01,22,02,20,20.90
2012,01,22,02,21,19.30
2012,01,22,02,22,24.20
2012,01,22,02,23,24.20
2012,01,22,02,24,20.90
2012,01,22,02,25,22.50
2012,01,22,02,26,19.30
2012,01,22,02,27,16.10
2012,01,22,02,28,19.30
2012,01,22,02,29,22.50
2012,01,22,02,30,25.70
2012,01,22,02,31,20.90
2012,01,22,02,32,24.20
2012,01,22,02,33,22.50
2012,01,22,02,34,22.50
2012,01,22,02,35,22.50
2012,01,22,02,36,25.70
2012,01,22,02,37,25.70
2012,01,22,02,38,27.40
2012,01,22,02,39,27.40
2012,01,22,02,40,20.90
2012,01,22,02,41,20.90
2012,01,22,02,42,24.20
2012,01,22,02,43,22.50
2012,01,22,02,44,22.50
2012,01,22,02,45,17.70
2012,01,22,02,46,19.30
2012,01,22,02,47,19.30
2012,01,22,02,48,22.50
2012,01,22,02,49,20.90
2012,01,22,02,50,19.30
2012,01,22,02,51,19.30
2012,01,22,02,52,17.70
2012,01,22,02,53,17.70
2012,01,22,02,54,19.30
2012,01,22,02,55,17.70
2012,01,22,02,56,17.70
2012,01,22,02,57,20.90
2012,01,22,02,58,20.90
2012,01,22,02,59,19.30
2012,01,22,03,00,22.50
2012,01,22,03,01,22.50
2012,01,22,03,02,19.30
2012,01,22,03,03,22.50
2012,01,22,03,04,17.70
2012,01,22,03,05,19.30
2012,01,22,03,06,16.10
2012,01,22,03,07,19.30
2012,01,22,03,08,20.90
2012,01,22,03,09,22.50
2012,01,22,03,10,20.90
2012,01,22,03,11,20.90
2012,01,22,03,12,19.30
2012,01,22,03,13,16.10
2012,01,22,03,14,17.70
2012,01,22,03,15,19.30
2012,01,22,03,16,16.10
2012,01,22,03,17,16.10
2012,01,22,03,18,16.10
2012,01,22,03,19,9.60
2012,01,22,03,20,17.70
2012,01,22,03,21,16.10
2012,01,22,03,22,16.10
2012,01,22,03,23,16.10
2012,01,22,03,24,16.10
2012,01,22,03,25,19.30
2012,01,22,03,26,19.30
2012,01,22,03,27,17.70
2012,01,22,03,28,12.90
2012,01,22,03,29,11.30
2012,01,22,03,30,11.30
2012,01,22,03,31,9.60
2012,01,22,03,32,14.50
2012,01,22,03,33,16.10
2012,01,22,03,34,9.60
2012,01,22,03,35,11.30
2012,01,22,03,36,16.10
2012,01,22,03,37,14.50
2012,01,22,03,38,14.50
2012,01,22,03,39,17.70
2012,01,22,03,40,14.50
2012,01,22,03,41,16.10
2012,01,22,03,42,14.50
2012,01,22,03,43,16.10
2012,01,22,03,44,17.70
2012,01,22,03,45,19.30
2012,01,22,03,46,16.10
2012,01,22,03,47,14.50
2012,01,22,03,48,14.50
2012,01,22,03,49,14.50
2012,01,22,03,50,17.70
2012,01,22,03,51,16.10
2012,01,22,03,52,9.60
2012,01,22,03,53,16.10
2012,01,22,03,54,11.30
2012,01,22,03,55,12.90
2012,01,22,03,56,14.50
2012,01,22,03,57,16.10
2012,01,22,03,58,11.30
2012,01,22,03,59,17.70
2012,01,22,04,00,14.50
2012,01,22,04,01,14.50
2012,01,22,04,02,17.70
2012,01,22,04,03,9.60
2012,01,22,04,04,19.30
2012,01,22,04,05,14.50
2012,01,22,04,06,17.70
2012,01,22,04,07,19.30
2012,01,22,04,08,19.30
2012,01,22,04,09,17.70
2012,01,22,04,10,20.90
2012,01,22,04,11,19.30
2012,01,22,04,12,22.50
2012,01,22,04,13,19.30
2012,01,22,04,14,14.50
2012,01,22,04,15,17.70
2012,01,22,04,16,19.30
2012,01,22,04,17,20.90
2012,01,22,04,18,16.10
2012,01,22,04,19,17.70
2012,01,22,04,20,17.70
2012,01,22,04,21,19.30
2012,01,22,04,22,17.70
2012,01,22,04,23,20.90
2012,01,22,04,24,20.90
2012,01,22,04,25,17.70
2012,01,22,04,26,14.50
2012,01,22,04,27,12.90
2012,01,22,04,28,17.70
2012,01,22,04,29,17.70
2012,01,22,04,30,16.10
2012,01,22,04,31,17.70
2012,01,22,04,32,17.70
2012,01,22,04,33,19.30
2012,01,22,04,34,20.90
2012,01,22,04,35,17.70
2012,01,22,04,36,22.50
2012,01,22,04,37,17.70
2012,01,22,04,38,17.70
2012,01,22,04,39,24.20
2012,01,22,04,40,20.90
2012,01,22,04,41,20.90
2012,01,22,04,42,17.70
2012,01,22,04,43,20.90
2012,01,22,04,44,22.50
2012,01,22,04,45,19.30
2012,01,22,04,46,22.50
2012,01,22,04,47,20.90
2012,01,22,04,48,20.90
2012,01,22,04,49,17.70
2012,01,22,04,50,20.90
2012,01,22,04,51,22.50
2012,01,22,04,52,22.50
2012,01,22,04,53,20.90
2012,01,22,04,54,16.10
2012,01,22,04,55,24.20
2012,01,22,04,56,19.30
2012,01,22,04,57,11.30
2012,01,22,04,58,14.50
2012,01,22,04,59,19.30
2012,01,22,05,00,17.70
2012,01,22,05,01,17.70
2012,01,22,05,02,16.10
2012,01,22,05,03,19.30
2012,01,22,05,04,17.70
2012,01,22,05,05,14.50
2012,01,22,05,06,19.30
2012,01,22,05,07,16.10
2012,01,22,05,08,20.90
2012,01,22,05,09,22.50
2012,01,22,05,10,19.30
2012,01,22,05,11,19.30
2012,01,22,05,12,19.30
2012,01,22,05,13,16.10
2012,01,22,05,14,17.70
2012,01,22,05,15,16.10
2012,01,22,05,16,16.10
2012,01,22,05,17,14.50
2012,01,22,05,18,11.30
2012,01,22,05,19,19.30
2012,01,22,05,20,16.10
2012,01,22,05,21,19.30
2012,01,22,05,22,20.90
2012,01,22,05,23,19.30
2012,01,22,05,24,17.70
2012,01,22,05,25,16.10
2012,01,22,05,26,16.10
2012,01,22,05,27,16.10
2012,01,22,05,28,14.50
2012,01,22,05,29,16.10
2012,01,22,05,30,16.10
2012,01,22,05,31,14.50
2012,01,22,05,32,22.50
2012,01,22,05,33,17.70
2012,01,22,05,34,19.30
2012,01,22,05,35,17.70
2012,01,22,05,36,11.30
2012,01,22,05,37,16.10
2012,01,22,05,38,16.10
2012,01,22,05,39,22.50
2012,01,22,05,40,20.90
2012,01,22,05,41,16.10
2012,01,22,05,42,17.70
2012,01,22,05,43,14.50
2012,01,22,05,44,16.10
2012,01,22,05,45,19.30
2012,01,22,05,46,22.50
2012,01,22,05,47,19.30
2012,01,22,05,48,16.10
2012,01,22,05,49,19.30
2012,01,22,05,50,20.90
2012,01,22,05,51,17.70
2012,01,22,05,52,19.30
2012,01,22,05,53,20.90
2012,01,22,05,54,25.70
2012,01,22,05,55,22.50
2012,01,22,05,56,19.30
2012,01,22,05,57,16.10
2012,01,22,05,58,22.50
2012,01,22,05,59,20.90
2012,01,22,06,00,20.90
2012,01,22,06,01,16.10
2012,01,22,06,02,17.70
2012,01,22,06,03,16.10
2012,01,22,06,04,14.50
2012,01,22,06,05,17.70
2012,01,22,06,06,19.30
2012,01,22,06,07,19.30
2012,01,22,06,08,16.10
2012,01,22,06,09,19.30
2012,01,22,06,10,17.70
2012,01,22,06,11,17.70
2012,01,22,06,12,17.70
2012,01,22,06,13,17.70
2012,01,22,06,14,17.70
2012,01,22,06,15,14.50
2012,01,22,06,16,19.30
2012,01,22,06,17,19.30
2012,01,22,06,18,14.50
2012,01,22,06,19,19.30
2012,01,22,06,20,12.90
2012,01,22,06,21,14.50
2012,01,22,06,22,12.90
2012,01,22,06,23,17.70
2012,01,22,06,24,14.50
2012,01,22,06,25,17.70
2012,01,22,06,26,14.50
2012,01,22,06,27,14.50
2012,01,22,06,28,20.90
2012,01,22,06,29,19.30
2012,01,22,06,30,19.30
2012,01,22,06,31,11.30
2012,01,22,06,32,17.70
2012,01,22,06,33,17.70
2012,01,22,06,34,16.10
2012,01,22,06,35,14.50
2012,01,22,06,36,14.50
2012,01,22,06,37,17.70
2012,01,22,06,38,17.70
2012,01,22,06,39,17.70
2012,01,22,06,40,17.70
2012,01,22,06,41,12.90
2012,01,22,06,42,20.90
2012,01,22,06,43,19.30
2012,01,22,06,44,19.30
2012,01,22,06,45,17.70
2012,01,22,06,46,24.20
2012,01,22,06,47,19.30
2012,01,22,06,48,22.50
2012,01,22,06,49,22.50
2012,01,22,06,50,20.90
2012,01,22,06,51,12.90
2012,01,22,06,52,22.50
2012,01,22,06,53,20.90
2012,01,22,06,54,19.30
2012,01,22,06,55,24.20
2012,01,22,06,56,24.20
2012,01,22,06,57,20.90
2012,01,22,06,58,16.10
2012,01,22,06,59,19.30
2012,01,22,07,00,16.10
2012,01,22,07,01,20.90
2012,01,22,07,02,22.50
2012,01,22,07,03,22.50
2012,01,22,07,04,16.10
2012,01,22,07,05,17.70
2012,01,22,07,06,19.30
2012,01,22,07,07,16.10
2012,01,22,07,08,22.50
2012,01,22,07,09,20.90
2012,01,22,07,10,17.70
2012,01,22,07,11,19.30
2012,01,22,07,12,19.30
2012,01,22,07,13,20.90
2012,01,22,07,14,19.30
2012,01,22,07,15,24.20
2012,01,22,07,16,20.90
2012,01,22,07,17,22.50
2012,01,22,07,18,14.50
2012,01,22,07,19,22.50
2012,01,22,07,20,25.70
2012,01,22,07,21,24.20
2012,01,22,07,22,17.70
2012,01,22,07,23,25.70
2012,01,22,07,24,24.20
2012,01,22,07,25,25.70
2012,01,22,07,26,25.70
2012,01,22,07,27,22.50
2012,01,22,07,28,24.20
2012,01,22,07,29,22.50
2012,01,22,07,30,20.90
2012,01,22,07,31,16.10
2012,01,22,07,32,19.30
2012,01,22,07,33,17.70
2012,01,22,07,34,24.20
2012,01,22,07,35,22.50
2012,01,22,07,36,24.20
2012,01,22,07,37,30.60
2012,01,22,07,38,19.30
2012,01,22,07,39,27.40
2012,01,22,07,40,29.00
2012,01,22,07,41,27.40
2012,01,22,07,42,25.70
2012,01,22,07,43,16.10
2012,01,22,07,44,24.20
2012,01,22,07,45,33.80
2012,01,22,07,46,37.00
2012,01,22,07,47,29.00
2012,01,22,07,48,25.70
2012,01,22,07,49,24.20
2012,01,22,07,50,30.60
2012,01,22,07,51,29.00
2012,01,22,07,52,29.00
2012,01,22,07,53,29.00
2012,01,22,07,54,29.00
2012,01,22,07,55,35.40
2012,01,22,07,56,30.60
2012,01,22,07,57,22.50
2012,01,22,07,58,27.40
2012,01,22,07,59,25.70
2012,01,22,08,00,20.90
2012,01,22,08,01,27.40
2012,01,22,08,02,30.60
2012,01,22,08,03,24.20
2012,01,22,08,04,19.30
2012,01,22,08,05,20.90
2012,01,22,08,06,19.30
2012,01,22,08,07,27.40
2012,01,22,08,08,29.00
2012,01,22,08,09,25.70
2012,01,22,08,10,24.20
2012,01,22,08,11,24.20
2012,01,22,08,12,17.70
2012,01,22,08,13,22.50
2012,01,22,08,14,22.50
2012,01,22,08,15,25.70
2012,01,22,08,16,25.70
2012,01,22,08,17,27.40
2012,01,22,08,18,22.50
2012,01,22,08,19,46.70
2012,01,22,08,20,37.00
2012,01,22,08,21,35.40
2012,01,22,08,22,32.20
2012,01,22,08,23,40.20
2012,01,22,08,24,25.70
2012,01,22,08,25,27.40
2012,01,22,08,26,29.00
2012,01,22,08,27,24.20
2012,01,22,08,28,24.20
2012,01,22,08,29,24.20
2012,01,22,08,30,25.70
2012,01,22,08,31,25.70
2012,01,22,08,32,22.50
2012,01,22,08,33,37.00
2012,01,22,08,34,37.00
2012,01,22,08,35,25.70
2012,01,22,08,36,22.50
2012,01,22,08,37,11.30
2012,01,22,08,38,19.30
2012,01,22,08,39,19.30
2012,01,22,08,40,20.90
2012,01,22,08,41,27.40
2012,01,22,08,42,29.00
2012,01,22,08,43,24.20
2012,01,22,08,44,22.50
2012,01,22,08,45,17.70
2012,01,22,08,46,22.50
2012,01,22,08,47,20.90
2012,01,22,08,48,24.20
2012,01,22,08,49,24.20
2012,01,22,08,50,22.50
2012,01,22,08,51,17.70
2012,01,22,08,52,27.40
2012,01,22,08,53,27.40
2012,01,22,08,54,25.70
2012,01,22,08,55,27.40
2012,01,22,08,56,32.20
2012,01,22,08,57,29.00
2012,01,22,08,58,29.00
2012,01,22,08,59,29.00
2012,01,22,09,00,33.80
2012,01,22,09,01,56.30
2012,01,22,09,02,37.00
2012,01,22,09,03,35.40
2012,01,22,09,04,37.00
2012,01,22,09,05,45.10
2012,01,22,09,06,38.60
2012,01,22,09,07,35.40
2012,01,22,09,08,38.60
2012,01,22,09,09,35.40
2012,01,22,09,10,40.20
2012,01,22,09,11,38.60
2012,01,22,09,12,30.60
2012,01,22,09,13,30.60
2012,01,22,09,14,29.00
2012,01,22,09,15,27.40
2012,01,22,09,16,24.20
2012,01,22,09,17,30.60
2012,01,22,09,18,29.00
2012,01,22,09,19,32.20
2012,01,22,09,20,20.90
2012,01,22,09,21,24.20
2012,01,22,09,22,29.00
2012,01,22,09,23,25.70
2012,01,22,09,24,24.20
2012,01,22,09,25,24.20
2012,01,22,09,26,19.30
2012,01,22,09,27,14.50
2012,01,22,09,28,30.60
2012,01,22,09,29,46.70
2012,01,22,09,30,27.40
2012,01,22,09,31,37.00
2012,01,22,09,32,41.80
2012,01,22,09,33,37.00
2012,01,22,09,34,37.00
2012,01,22,09,35,32.20
2012,01,22,09,36,35.40
2012,01,22,09,37,35.40
2012,01,22,09,38,30.60
2012,01,22,09,39,35.40
2012,01,22,09,40,37.00
2012,01,22,09,41,43.50
2012,01,22,09,42,45.10
2012,01,22,09,43,29.00
2012,01,22,09,44,27.40
2012,01,22,09,45,27.40
2012,01,22,09,46,22.50
2012,01,22,09,47,29.00
2012,01,22,09,48,32.20
2012,01,22,09,49,30.60
2012,01,22,09,50,38.60
2012,01,22,09,51,25.70
2012,01,22,09,52,29.00
2012,01,22,09,53,29.00
2012,01,22,09,54,43.50
2012,01,22,09,55,32.20
2012,01,22,09,56,33.80
2012,01,22,09,57,37.00
2012,01,22,09,58,33.80
2012,01,22,09,59,33.80
2012,01,22,10,00,29.00
2012,01,22,10,01,25.70
2012,01,22,10,02,30.60
2012,01,22,10,03,40.20
2012,01,22,10,04,27.40
2012,01,22,10,05,29.00
2012,01,22,10,06,33.80
2012,01,22,10,07,24.20
2012,01,22,10,08,33.80
2012,01,22,10,09,32.20
2012,01,22,10,10,38.60
2012,01,22,10,11,41.80
2012,01,22,10,12,43.50
2012,01,22,10,13,32.20
2012,01,22,10,14,25.70
2012,01,22,10,15,27.40
2012,01,22,10,16,27.40
2012,01,22,10,17,32.20
2012,01,22,10,18,27.40
2012,01,22,10,19,27.40
2012,01,22,10,20,29.00
2012,01,22,10,21,38.60
2012,01,22,10,22,35.40
2012,01,22,10,23,38.60
2012,01,22,10,24,29.00
2012,01,22,10,25,30.60
2012,01,22,10,26,30.60
2012,01,22,10,27,43.50
2012,01,22,10,28,32.20
2012,01,22,10,29,46.70
2012,01,22,10,30,49.90
2012,01,22,10,31,45.10
2012,01,22,10,32,35.40
2012,01,22,10,33,32.20
2012,01,22,10,34,33.80
2012,01,22,10,35,35.40
2012,01,22,10,36,30.60
2012,01,22,10,37,35.40
2012,01,22,10,38,32.20
2012,01,22,10,39,35.40
2012,01,22,10,40,35.40
2012,01,22,10,41,43.50
2012,01,22,10,42,35.40
2012,01,22,10,43,45.10
2012,01,22,10,44,51.50
2012,01,22,10,45,40.20
2012,01,22,10,46,43.50
2012,01,22,10,47,37.00
2012,01,22,10,48,37.00
2012,01,22,10,49,37.00
2012,01,22,10,50,32.20
2012,01,22,10,51,27.40
2012,01,22,10,52,33.80
2012,01,22,10,53,40.20
2012,01,22,10,54,37.00
2012,01,22,10,55,30.60
2012,01,22,10,56,35.40
2012,01,22,10,57,27.40
2012,01,22,10,58,45.10
2012,01,22,10,59,33.80
2012,01,22,11,00,33.80
2012,01,22,11,01,25.70
2012,01,22,11,02,17.70
2012,01,22,11,03,22.50
2012,01,22,11,04,25.70
2012,01,22,11,05,33.80
2012,01,22,11,06,29.00
2012,01,22,11,07,30.60
2012,01,22,11,08,24.20
2012,01,22,11,09,37.00
2012,01,22,11,10,35.40
2012,01,22,11,11,32.20
2012,01,22,11,12,45.10
2012,01,22,11,13,30.60
2012,01,22,11,14,37.00
2012,01,22,11,15,32.20
2012,01,22,11,16,35.40
2012,01,22,11,17,35.40
2012,01,22,11,18,51.50
2012,01,22,11,19,43.50
2012,01,22,11,20,37.00
2012,01,22,11,21,29.00
2012,01,22,11,22,24.20
2012,01,22,11,23,35.40
2012,01,22,11,24,40.20
2012,01,22,11,25,38.60
2012,01,22,11,26,43.50
2012,01,22,11,27,30.60
2012,01,22,11,28,35.40
2012,01,22,11,29,25.70
2012,01,22,11,30,38.60
2012,01,22,11,31,33.80
2012,01,22,11,32,43.50
2012,01,22,11,33,40.20
2012,01,22,11,34,38.60
2012,01,22,11,35,29.00
2012,01,22,11,36,38.60
2012,01,22,11,37,37.00
2012,01,22,11,38,37.00
2012,01,22,11,39,43.50
2012,01,22,11,40,41.80
2012,01,22,11,41,33.80
2012,01,22,11,42,29.00
2012,01,22,11,43,25.70
2012,01,22,11,44,38.60
2012,01,22,11,45,33.80
2012,01,22,11,46,33.80
2012,01,22,11,47,32.20
2012,01,22,11,48,25.70
2012,01,22,11,49,30.60
2012,01,22,11,50,37.00
2012,01,22,11,51,40.20
2012,01,22,11,52,33.80
2012,01,22,11,53,38.60
2012,01,22,11,54,41.80
2012,01,22,11,55,40.20
2012,01,22,11,56,35.40
2012,01,22,11,57,35.40
2012,01,22,11,58,32.20
2012,01,22,11,59,38.60
2012,01,22,12,00,43.50
2012,01,22,12,01,35.40
2012,01,22,12,02,29.00
2012,01,22,12,03,32.20
2012,01,22,12,04,27.40
2012,01,22,12,05,30.60
2012,01,22,12,06,35.40
2012,01,22,12,07,35.40
2012,01,22,12,08,29.00
2012,01,22,12,09,40.20
2012,01,22,12,10,35.40
2012,01,22,12,11,35.40
2012,01,22,12,12,30.60
2012,01,22,12,13,41.80
2012,01,22,12,14,37.00
2012,01,22,12,15,37.00
2012,01,22,12,16,33.80
2012,01,22,12,17,37.00
2012,01,22,12,18,40.20
2012,01,22,12,19,32.20
2012,01,22,12,20,29.00
2012,01,22,12,21,24.20
2012,01,22,12,22,29.00
2012,01,22,12,23,30.60
2012,01,22,12,24,27.40
2012,01,22,12,25,25.70
2012,01,22,12,26,27.40
2012,01,22,12,27,33.80
2012,01,22,12,28,33.80
2012,01,22,12,29,29.00
2012,01,22,12,30,33.80
2012,01,22,12,31,25.70
2012,01,22,12,32,33.80
2012,01,22,12,33,33.80
2012,01,22,12,34,41.80
2012,01,22,12,35,35.40
2012,01,22,12,36,35.40
2012,01,22,12,37,43.50
2012,01,22,12,38,27.40
2012,01,22,12,39,20.90
2012,01,22,12,40,27.40
2012,01,22,12,41,41.80
2012,01,22,12,42,30.60
2012,01,22,12,43,35.40
2012,01,22,12,44,30.60
2012,01,22,12,45,25.70
2012,01,22,12,46,35.40
2012,01,22,12,47,30.60
2012,01,22,12,48,33.80
2012,01,22,12,49,38.60
2012,01,22,12,50,37.00
2012,01,22,12,51,25.70
2012,01,22,12,52,29.00
2012,01,22,12,53,37.00
2012,01,22,12,54,35.40
2012,01,22,12,55,29.00
2012,01,22,12,56,38.60
2012,01,22,12,57,40.20
2012,01,22,12,58,30.60
2012,01,22,12,59,33.80
2012,01,22,13,00,37.00
2012,01,22,13,01,40.20
2012,01,22,13,02,33.80
2012,01,22,13,03,29.00
2012,01,22,13,04,25.70
2012,01,22,13,05,32.20
2012,01,22,13,06,29.00
2012,01,22,13,07,27.40
2012,01,22,13,08,41.80
2012,01,22,13,09,33.80
2012,01,22,13,10,33.80
2012,01,22,13,11,27.40
2012,01,22,13,12,29.00
2012,01,22,13,13,33.80
2012,01,22,13,14,27.40
2012,01,22,13,15,32.20
2012,01,22,13,16,32.20
2012,01,22,13,17,38.60
2012,01,22,13,18,30.60
2012,01,22,13,19,27.40
2012,01,22,13,20,29.00
2012,01,22,13,21,30.60
2012,01,22,13,22,30.60
2012,01,22,13,23,35.40
2012,01,22,13,24,35.40
2012,01,22,13,25,32.20
2012,01,22,13,26,32.20
2012,01,22,13,27,29.00
2012,01,22,13,28,41.80
2012,01,22,13,29,38.60
2012,01,22,13,30,30.60
2012,01,22,13,31,30.60
2012,01,22,13,32,30.60
2012,01,22,13,33,35.40
2012,01,22,13,34,25.70
2012,01,22,13,35,33.80
2012,01,22,13,36,37.00
2012,01,22,13,37,40.20
2012,01,22,13,38,33.80
2012,01,22,13,39,35.40
2012,01,22,13,40,24.20
2012,01,22,13,41,29.00
2012,01,22,13,42,32.20
2012,01,22,13,43,29.00
2012,01,22,13,44,27.40
2012,01,22,13,45,24.20
2012,01,22,13,46,33.80
2012,01,22,13,47,32.20
2012,01,22,13,48,37.00
2012,01,22,13,49,25.70
2012,01,22,13,50,32.20
2012,01,22,13,51,29.00
2012,01,22,13,52,30.60
2012,01,22,13,53,22.50
2012,01,22,13,54,19.30
2012,01,22,13,55,33.80
2012,01,22,13,56,27.40
2012,01,22,13,57,25.70
2012,01,22,13,58,25.70
2012,01,22,13,59,27.40
2012,01,22,14,00,32.20
2012,01,22,14,01,25.70
2012,01,22,14,02,25.70
2012,01,22,14,03,22.50
2012,01,22,14,04,20.90
2012,01,22,14,05,20.90
2012,01,22,14,06,20.90
2012,01,22,14,07,24.20
2012,01,22,14,08,22.50
2012,01,22,14,09,20.90
2012,01,22,14,10,20.90
2012,01,22,14,11,19.30
2012,01,22,14,12,27.40
2012,01,22,14,13,25.70
2012,01,22,14,14,29.00
2012,01,22,14,15,24.20
2012,01,22,14,16,27.40
2012,01,22,14,17,30.60
2012,01,22,14,18,33.80
2012,01,22,14,19,29.00
2012,01,22,14,20,25.70
2012,01,22,14,21,30.60
2012,01,22,14,22,24.20
2012,01,22,14,23,32.20
2012,01,22,14,24,35.40
2012,01,22,14,25,22.50
2012,01,22,14,26,32.20
2012,01,22,14,27,33.80
2012,01,22,14,28,37.00
2012,01,22,14,29,27.40
2012,01,22,14,30,32.20
2012,01,22,14,31,30.60
2012,01,22,14,32,37.00
2012,01,22,14,33,30.60
2012,01,22,14,34,32.20
2012,01,22,14,35,27.40
2012,01,22,14,36,40.20
2012,01,22,14,37,30.60
2012,01,22,14,38,40.20
2012,01,22,14,39,35.40
2012,01,22,14,40,40.20
2012,01,22,14,41,27.40
2012,01,22,14,42,29.00
2012,01,22,14,43,41.80
2012,01,22,14,44,33.80
2012,01,22,14,45,37.00
2012,01,22,14,46,37.00
2012,01,22,14,47,38.60
2012,01,22,14,48,35.40
2012,01,22,14,49,35.40
2012,01,22,14,50,32.20
2012,01,22,14,51,27.40
2012,01,22,14,52,27.40
2012,01,22,14,53,30.60
2012,01,22,14,54,29.00
2012,01,22,14,55,32.20
2012,01,22,14,56,32.20
2012,01,22,14,57,40.20
2012,01,22,14,58,33.80
2012,01,22,14,59,32.20
2012,01,22,15,00,30.60
2012,01,22,15,01,37.00
2012,01,22,15,02,35.40
2012,01,22,15,03,32.20
2012,01,22,15,04,35.40
2012,01,22,15,05,29.00
2012,01,22,15,06,27.40
2012,01,22,15,07,35.40
2012,01,22,15,08,20.90
2012,01,22,15,09,25.70
2012,01,22,15,10,24.20
2012,01,22,15,11,29.00
2012,01,22,15,12,29.00
2012,01,22,15,13,29.00
2012,01,22,15,14,25.70
2012,01,22,15,15,24.20
2012,01,22,15,16,27.40
2012,01,22,15,17,32.20
2012,01,22,15,18,35.40
2012,01,22,15,19,32.20
2012,01,22,15,20,29.00
2012,01,22,15,21,24.20
2012,01,22,15,22,30.60
2012,01,22,15,23,27.40
2012,01,22,15,24,33.80
2012,01,22,15,25,25.70
2012,01,22,15,26,37.00
2012,01,22,15,27,30.60
2012,01,22,15,28,29.00
2012,01,22,15,29,29.00
2012,01,22,15,30,30.60
2012,01,22,15,31,29.00
2012,01,22,15,32,24.20
2012,01,22,15,33,29.00
2012,01,22,15,34,29.00
2012,01,22,15,35,40.20
2012,01,22,15,36,45.10
2012,01,22,15,37,32.20
2012,01,22,15,38,38.60
2012,01,22,15,39,48.30
2012,01,22,15,40,40.20
2012,01,22,15,41,37.00
2012,01,22,15,42,27.40
2012,01,22,15,43,22.50
2012,01,22,15,44,20.90
2012,01,22,15,45,20.90
2012,01,22,15,46,37.00
2012,01,22,15,47,29.00
2012,01,22,15,48,33.80
2012,01,22,15,49,22.50
2012,01,22,15,50,29.00
2012,01,22,15,51,33.80
2012,01,22,15,52,35.40
2012,01,22,15,53,29.00
2012,01,22,15,54,27.40
2012,01,22,15,55,41.80
2012,01,22,15,56,35.40
2012,01,22,15,57,27.40
2012,01,22,15,58,33.80
2012,01,22,15,59,33.80
2012,01,22,16,00,40.20
2012,01,22,16,01,40.20
2012,01,22,16,02,38.60
2012,01,22,16,03,30.60
2012,01,22,16,04,33.80
2012,01,22,16,05,33.80
2012,01,22,16,06,49.90
2012,01,22,16,07,43.50
2012,01,22,16,08,51.50
2012,01,22,16,09,33.80
2012,01,22,16,10,41.80
2012,01,22,16,11,37.00
2012,01,22,16,12,29.00
2012,01,22,16,13,37.00
2012,01,22,16,14,37.00
2012,01,22,16,15,38.60
2012,01,22,16,16,37.00
2012,01,22,16,17,33.80
2012,01,22,16,18,30.60
2012,01,22,16,19,30.60
2012,01,22,16,20,30.60
2012,01,22,16,21,38.60
2012,01,22,16,22,33.80
2012,01,22,16,23,29.00
2012,01,22,16,24,25.70
2012,01,22,16,25,35.40
2012,01,22,16,26,35.40
2012,01,22,16,27,29.00
2012,01,22,16,28,33.80
2012,01,22,16,29,30.60
2012,01,22,16,30,27.40
2012,01,22,16,31,25.70
2012,01,22,16,32,20.90
2012,01,22,16,33,33.80
2012,01,22,16,34,29.00
2012,01,22,16,35,27.40
2012,01,22,16,36,29.00
2012,01,22,16,37,30.60
2012,01,22,16,38,20.90
2012,01,22,16,39,24.20
2012,01,22,16,40,25.70
2012,01,22,16,41,27.40
2012,01,22,16,42,24.20
2012,01,22,16,43,20.90
2012,01,22,16,44,19.30
2012,01,22,16,45,22.50
2012,01,22,16,46,27.40
2012,01,22,16,47,27.40
2012,01,22,16,48,22.50
2012,01,22,16,49,27.40
2012,01,22,16,50,24.20
2012,01,22,16,51,19.30
2012,01,22,16,52,14.50
2012,01,22,16,53,14.50
2012,01,22,16,54,17.70
2012,01,22,16,55,19.30
2012,01,22,16,56,11.30
2012,01,22,16,57,12.90
2012,01,22,16,58,20.90
2012,01,22,16,59,20.90
2012,01,22,17,00,17.70
2012,01,22,17,01,17.70
2012,01,22,17,02,12.90
2012,01,22,17,03,17.70
2012,01,22,17,04,16.10
2012,01,22,17,05,12.90
2012,01,22,17,06,14.50
2012,01,22,17,07,11.30
2012,01,22,17,08,14.50
2012,01,22,17,09,12.90
2012,01,22,17,10,17.70
2012,01,22,17,11,20.90
2012,01,22,17,12,24.20
2012,01,22,17,13,11.30
2012,01,22,17,14,24.20
2012,01,22,17,15,17.70
2012,01,22,17,16,20.90
2012,01,22,17,17,19.30
2012,01,22,17,18,20.90
2012,01,22,17,19,19.30
2012,01,22,17,20,20.90